Previsão horária em Çayıralan

Hoje, 30 Julho, Sexta-feira

Tempo Temperatura Precipitação Vento Pressão Humidade
00:00 +14°C° 0 mm 2 m/s 645 mmHg 85%
01:00 +14°C° 0 mm 2 m/s 644 mmHg 87%
02:00 +13°C° 0 mm 2 m/s 644 mmHg 89%
03:00 +13°C° 0 mm 2 m/s 644 mmHg 89%
04:00 +13°C° 0 mm 2 m/s 644 mmHg 90%
05:00 +12°C° 0 mm 2 m/s 644 mmHg 91%
06:00 +15°C° 0 mm 2 m/s 645 mmHg 79%
07:00 +17°C° 0 mm 3 m/s 645 mmHg 68%
08:00 +19°C° 0 mm 3 m/s 646 mmHg 56%
09:00 +22°C° 0 mm 4 m/s 646 mmHg 49%
10:00 +25°C° 0 mm 4 m/s 646 mmHg 41%
11:00 +27°C° 0 mm 5 m/s 647 mmHg 34%
12:00 +28°C° 0 mm 5 m/s 647 mmHg 32%
13:00 +29°C° 0 mm 6 m/s 646 mmHg 30%
14:00 +30°C° 0 mm 6 m/s 646 mmHg 28%
15:00 +29°C° 0 mm 7 m/s 646 mmHg 30%
16:00 +28°C° 0 mm 7 m/s 646 mmHg 33%
17:00 +27°C° 0 mm 8 m/s 645 mmHg 35%
18:00 +24°C° 0 mm 6 m/s 645 mmHg 44%
19:00 +21°C° 0 mm 5 m/s 645 mmHg 54%
20:00 +18°C° 0 mm 3 m/s 645 mmHg 63%
21:00 +17°C° 0 mm 3 m/s 645 mmHg 67%
22:00 +16°C° 0 mm 3 m/s 645 mmHg 70%
23:00 +15°C° 0 mm 2 m/s 644 mmHg 74%

Amanhã, 31 Julho, Sábado

Tempo Temperatura Precipitação Vento Pressão Humidade
00:00 +15°C° 0 mm 2 m/s 644 mmHg 75%
01:00 +14°C° 0 mm 2 m/s 644 mmHg 76%
02:00 +14°C° 0 mm 2 m/s 644 mmHg 77%
03:00 +14°C° 0 mm 2 m/s 644 mmHg 78%
04:00 +13°C° 0 mm 2 m/s 644 mmHg 79%
05:00 +13°C° 0 mm 2 m/s 644 mmHg 81%
06:00 +16°C° 0 mm 2 m/s 644 mmHg 71%
07:00 +18°C° 0 mm 3 m/s 645 mmHg 61%
08:00 +21°C° 0 mm 3 m/s 646 mmHg 51%
09:00 +23°C° 0 mm 4 m/s 646 mmHg 44%
10:00 +26°C° 0 mm 4 m/s 646 mmHg 38%
11:00 +28°C° 0 mm 5 m/s 646 mmHg 32%
12:00 +29°C° 0 mm 5 m/s 646 mmHg 29%
13:00 +29°C° 0 mm 5 m/s 646 mmHg 27%
14:00 +30°C° 0 mm 6 m/s 646 mmHg 24%
15:00 +30°C° 0 mm 6 m/s 646 mmHg 26%
16:00 +29°C° 0 mm 6 m/s 646 mmHg 27%
17:00 +28°C° 0 mm 7 m/s 646 mmHg 28%
18:00 +26°C° 0 mm 6 m/s 645 mmHg 37%
19:00 +22°C° 0 mm 5 m/s 645 mmHg 45%
20:00 +19°C° 0 mm 4 m/s 645 mmHg 54%
21:00 +18°C° 0 mm 3 m/s 645 mmHg 59%
22:00 +17°C° 0 mm 3 m/s 645 mmHg 64%
23:00 +16°C° 0 mm 2 m/s 645 mmHg 70%

Depois de amanhã, 1 Agosto, Domingo

Tempo Temperatura Precipitação Vento Pressão Humidade
00:00 +15°C° 0 mm 2 m/s 644 mmHg 72%
01:00 +15°C° 0 mm 2 m/s 644 mmHg 75%
02:00 +14°C° 0 mm 2 m/s 644 mmHg 78%
03:00 +14°C° 0 mm 2 m/s 644 mmHg 79%
04:00 +14°C° 0 mm 2 m/s 644 mmHg 81%
05:00 +13°C° 0 mm 2 m/s 644 mmHg 82%
06:00 +16°C° 0 mm 2 m/s 645 mmHg 70%
07:00 +19°C° 0 mm 2 m/s 646 mmHg 58%
08:00 +21°C° 0 mm 2 m/s 646 mmHg 46%
09:00 +24°C° 0 mm 3 m/s 646 mmHg 40%
10:00 +26°C° 0 mm 3 m/s 647 mmHg 34%
11:00 +28°C° 0 mm 3 m/s 647 mmHg 28%
12:00 +29°C° 0 mm 4 m/s 647 mmHg 26%
13:00 +30°C° 0 mm 4 m/s 647 mmHg 24%
14:00 +32°C° 0 mm 5 m/s 647 mmHg 22%
15:00 +32°C° 0 mm 6 m/s 646 mmHg 23%
16:00 +30°C° 0 mm 6 m/s 646 mmHg 25%
17:00 +29°C° 0 mm 7 m/s 646 mmHg 26%
18:00 +27°C° 0 mm 6 m/s 646 mmHg 36%
19:00 +23°C° 0 mm 5 m/s 646 mmHg 45%
20:00 +20°C° 0 mm 4 m/s 646 mmHg 55%
21:00 +19°C° 0 mm 4 m/s 645 mmHg 60%
22:00 +18°C° 0 mm 3 m/s 645 mmHg 65%
23:00 +16°C° 0 mm 2 m/s 645 mmHg 69%

2 Agosto, Segunda-feira

Tempo Temperatura Precipitação Vento Pressão Humidade
00:00 +16°C° 0 mm 2 m/s 645 mmHg 70%
01:00 +15°C° 0 mm 2 m/s 644 mmHg 72%
02:00 +15°C° 0 mm 2 m/s 644 mmHg 73%
03:00 +14°C° 0 mm 2 m/s 644 mmHg 74%
04:00 +14°C° 0 mm 2 m/s 645 mmHg 75%
05:00 +14°C° 0 mm 2 m/s 645 mmHg 76%
06:00 +16°C° 0 mm 2 m/s 645 mmHg 65%
07:00 +19°C° 0 mm 2 m/s 646 mmHg 55%
08:00 +23°C° 0 mm 2 m/s 647 mmHg 44%
09:00 +25°C° 0 mm 3 m/s 647 mmHg 38%
10:00 +27°C° 0 mm 3 m/s 647 mmHg 32%
11:00 +29°C° 0 mm 3 m/s 647 mmHg 26%
12:00 +30°C° 0 mm 4 m/s 647 mmHg 24%
13:00 +32°C° 0 mm 4 m/s 647 mmHg 23%
14:00 +33°C° 0 mm 5 m/s 647 mmHg 21%
15:00 +32°C° 0 mm 6 m/s 647 mmHg 22%
16:00 +32°C° 0 mm 6 m/s 647 mmHg 23%
17:00 +30°C° 0 mm 7 m/s 647 mmHg 24%
18:00 +28°C° 0 mm 5 m/s 646 mmHg 33%
19:00 +25°C° 0 mm 4 m/s 646 mmHg 42%
20:00 +21°C° 0 mm 3 m/s 646 mmHg 52%
21:00 +20°C° 0 mm 3 m/s 646 mmHg 57%
22:00 +19°C° 0 mm 2 m/s 646 mmHg 62%
23:00 +18°C° 0 mm 2 m/s 645 mmHg 67%

3 Agosto, Terça-feira

Tempo Temperatura Precipitação Vento Pressão Humidade
00:00 +17°C° 0 mm 2 m/s 645 mmHg 68%
01:00 +16°C° 0 mm 2 m/s 645 mmHg 70%
02:00 +16°C° 0 mm 2 m/s 645 mmHg 71%
03:00 +16°C° 0 mm 2 m/s 645 mmHg 72%
04:00 +15°C° 0 mm 1 m/s 645 mmHg 72%
05:00 +15°C° 0 mm 1 m/s 645 mmHg 72%
06:00 +19°C° 0 mm 1 m/s 646 mmHg 61%
07:00 +22°C° 0 mm 1 m/s 647 mmHg 50%
08:00 +24°C° 0 mm 1 m/s 648 mmHg 39%
09:00 +26°C° 0 mm 2 m/s 648 mmHg 33%
10:00 +28°C° 0 mm 3 m/s 648 mmHg 27%
11:00 +30°C° 0 mm 3 m/s 648 mmHg 21%
12:00 +32°C° 0 mm 4 m/s 648 mmHg 19%
13:00 +33°C° 0 mm 5 m/s 648 mmHg 18%
14:00 +34°C° 0 mm 5 m/s 648 mmHg 17%
15:00 +33°C° 0 mm 6 m/s 648 mmHg 17%
16:00 +33°C° 0 mm 6 m/s 648 mmHg 18%
17:00 +32°C° 0 mm 6 m/s 648 mmHg 19%
18:00 +29°C° 0 mm 5 m/s 648 mmHg 26%
19:00 +26°C° 0 mm 4 m/s 648 mmHg 33%
20:00 +22°C° 0 mm 4 m/s 647 mmHg 41%
21:00 +21°C° 0 mm 3 m/s 647 mmHg 46%
22:00 +19°C° 0 mm 3 m/s 647 mmHg 52%
23:00 +18°C° 0 mm 2 m/s 647 mmHg 58%

4 Agosto, Quarta-feira

Tempo Temperatura Precipitação Vento Pressão Humidade
00:00 +18°C° 0 mm 2 m/s 647 mmHg 61%
01:00 +17°C° 0 mm 2 m/s 647 mmHg 64%
02:00 +16°C° 0 mm 2 m/s 647 mmHg 67%
03:00 +16°C° 0 mm 2 m/s 647 mmHg 70%
04:00 +16°C° 0 mm 2 m/s 647 mmHg 73%
05:00 +15°C° 0 mm 2 m/s 647 mmHg 76%
06:00 +18°C° 0 mm 2 m/s 648 mmHg 66%
07:00 +20°C° 0 mm 2 m/s 649 mmHg 57%
08:00 +24°C° 0 mm 3 m/s 649 mmHg 47%
09:00 +26°C° 0 mm 3 m/s 650 mmHg 42%
10:00 +28°C° 0 mm 3 m/s 650 mmHg 36%
11:00 +30°C° 0 mm 4 m/s 650 mmHg 30%
12:00 +32°C° 0 mm 4 m/s 650 mmHg 27%
13:00 +33°C° 0 mm 5 m/s 650 mmHg 24%
14:00 +34°C° 0 mm 5 m/s 650 mmHg 22%
15:00 +33°C° 0 mm 6 m/s 650 mmHg 23%
16:00 +32°C° 0 mm 6 m/s 649 mmHg 25%
17:00 +32°C° 0 mm 7 m/s 649 mmHg 27%
18:00 +28°C° 0 mm 6 m/s 649 mmHg 36%
19:00 +25°C° 0 mm 5 m/s 649 mmHg 45%
20:00 +22°C° 0 mm 4 m/s 648 mmHg 54%
21:00 +21°C° 0 mm 3 m/s 648 mmHg 58%
22:00 +19°C° 0 mm 3 m/s 648 mmHg 61%
23:00 +18°C° 0 mm 2 m/s 648 mmHg 65%
Mostrar mais

Necessitamos do seu Consentimento

A Meteoprog e os seus Fornecedores de Serviços podem armazenar e aceder a dados pessoais como cookies, identificadores do dispositivo ou outras tecnologias semelhantes existentes no seu dispositivo e processar estes dados para personalizar conteúdos e anúncios, assim como funcionalidades nas redes sociais e análise de tráfego.

  • Armazenar e/ou aceder a informações no seu dispositivo

    Os cookies, identificadores do dispositivo ou outras informações podem ser armazenados ou acedidos no seu dispositivo, para os fins acima indicados.

  • Anúncios e conteúdos personalizados, medição de anúncios e conteúdos, dados sobre o público-alvo e desenvolvimento de produtos

    Os anúncios e os conteúdos podem ser personalizados com base num perfil. Podem ser adicionados dados adicionais para uma maior personalização dos anúncios e dos conteúdos. A eficácia dos anúncios e dos conteúdos pode ser medida. Podem ser obtidas informações sobre o público que visualizou os anúncios e os conteúdos. Estes dados podem ser usados para desenvolver ou melhorar sistemas, softwares ou a experiência do utilizador.

Ao clicar em "Eu concordo”, permitirá o uso de cookies, identificadores do dispositivo e web beacons mencionados ou outras tecnologias semelhantes. As configurações do navegador do seu dispositivo podem ser alteradas.

Para certos fins, podem ser invocados interesses legítimos ao invés de consentimento. Pode ler mais informação sobre este assunto na nossa Política de Privacidade e Cookies.